Location: Brantley
(31.5822°N, 86.2569°W)
Time: 12:51:39
(UTC+00:00)

Courier 1B Rocket - Pass Details

Date: 23 February 2026
Orbit: 920 x 1201 km, 28.2° (Epoch: 17 March)

Event Time Altitude Azimuth Distance (km) Brightness Sun altitude
Rises 04:25:22 0° 269° (W) 3,582 - -59.4°
Reaches altitude 10° 04:28:25 10° 256° (WSW) 2,665 - -59.9°
Maximum altitude 04:33:27 24° 204° (SSW) 1,885 - -60.7°
Drops below altitude 10° 04:38:43 10° 153° (SSE) 2,796 - -61.5°
Sets 04:42:01 0° 140° (SE) 3,799 - -62.0°
